Regional Weather Roundup
Issued by NWS

Home | Current Version | Previous Version | Graphics & Text | Print | Product List | Glossary On
Versions: 1 2 3 4 5 6 7 8 9 10 11 12 13 14 15 16 17 18 19 20 21 22 23 24 25 26 27 28 29 30 31 32 33 34 35 36 37 38 39 40 41 42 43 44 45 46 47 48 49 50
000
ASUS43 KBIS 090702
RWRND

NORTH DAKOTA REGIONAL WEATHER ROUNDUP
NATIONAL WEATHER SERVICE BISMARCK ND
100 AM CST FRI DEC 09 2016

NOTE: "FAIR" INDICATES FEW OR NO CLOUDS BELOW 12,000 FEET WITH NO
SIGNIFICANT WEATHER AND/OR OBSTRUCTIONS TO VISIBILITY.


NDZ001>003-009>011-017-090800-
NORTHWEST NORTH DAKOTA

CITY           SKY/WX    TMP DP  RH WIND       PRES   REMARKS
WILLISTON      CLOUDY   -15 -20  78 CALM      30.57F
MINOT          CLOUDY    -8 -12  83 W8        30.55S WCI -24
MINOT AFB      CLOUDY   -11 -16  77 NW9       30.55S WCI -28
$$

NDZ018>021-031>035-040>046-090800-
SOUTHWEST NORTH DAKOTA

CITY           SKY/WX    TMP DP  RH WIND       PRES   REMARKS
BISMARCK       CLOUDY    -5 -10  79 CALM      30.59F
DICKINSON      CLOUDY   -17 -22  78 S5        30.46S WCI -30
GARRISON         N/A    -12 -17  78 N8        30.54F WCI -29
HETTINGER ARPT CLOUDY   -21 -24  86 W3        30.48R
$$

NDZ004>008-012>016-024-026-027-054-090800-
NORTHEAST NORTH DAKOTA

CITY           SKY/WX    TMP DP  RH WIND       PRES   REMARKS
GRAND FORKS    CLOUDY     8   2  76 NW8       30.58S WCI  -4
GRND FRKS AFB  CLOUDY     7   0  72 NW9       30.58S WCI  -7
DEVILS LAKE    LGT SNOW   0  -4  83 NW9       30.55S FOG     WCI -15
$$

NDZ022-023-025-028>030-036>039-047>053-090800-
SOUTHEAST NORTH DAKOTA

CITY           SKY/WX    TMP DP  RH WIND       PRES   REMARKS
FARGO          CLOUDY     8   2  76 W8        30.59S WCI  -4
JAMESTOWN      CLEAR     -6 -10  83 W8        30.55F WCI -21
$$





USA.gov is the U.S. government's official web portal to all federal, state and local government web resources and services.